[[{"header":{"parameterUnit":"m.s-1","parameterCategory":1,"la1":30.2991,"la2":30.254,"lo1":-89.0895,"lo2":-89.0444,"dy":0.0017,"dx":0.0017,"nx":28,"ny":28,"refTime":"2024-10-17T03:00:00:Z","depth":0,"parameterNumber":2,"parameterNumberName":"U-component_of_WINDS"},"data":[0,0,0,0,0,0,0,0,0,0,0,0,0,0,0,0,0,0,0,0,0,0,0,0,0,0,0,0,0,0,0,0,0,0,0,0,0,0,0,0,0,0,0,0,0,0,0,0,0,0,0,0,0,0,0,0,0,0,-4.7238,-4.7237,0,-4.7231,-4.7231,-4.7231,-4.7056,-4.7051,-4.7047,-4.7043,-4.7037,-4.704,-4.7044,0,0,0,0,0,0,0,0,0,0,0,0,0,-4.7099,-4.7103,-4.7238,-4.7237,-4.7237,-4.7231,-4.7231,-4.7231,-4.7057,-4.7051,-4.7046,-4.7041,-4.7035,-4.704,-4.7045,0,0,0,0,0,0,0,0,0,0,0,0,0,-4.7133,-4.7104,-4.7238,-4.715,-4.7142,-4.7231,-4.7231,-4.723,-4.7058,-4.7051,-4.7044,-4.7038,-4.7034,-4.704,-4.7045,-4.7218,0,0,-4.7064,-4.7067,0,0,0,0,0,0,0,0,-4.7131,-4.7138,-4.7163,-4.7156,-4.7147,-4.7137,-4.7179,-4.7226,-4.706,-4.709,-4.7043,-4.7035,-4.7076,-4.7078,-4.7091,-4.7218,-4.7218,-4.7065,-4.7068,-4.7071,-4.7073,0,0,0,0,0,0,0,-4.7129,-4.7137,-4.7235,-4.7163,-4.7154,-4.7111,-4.7108,-4.7188,-4.7121,-4.7087,-4.7074,-4.7075,-4.707,-4.7086,-4.709,-4.7217,-4.7064,-4.707,-4.7073,-4.7076,-4.7482,-4.7489,0,0,0,0,0,0,-4.7139,-4.7137,-4.7235,-4.7234,-4.7122,-4.7119,-4.7115,-4.7147,-4.7119,-4.7109,-4.7081,-4.7067,-4.7079,-4.7083,-4.7089,-4.7287,-4.7071,-4.7076,-4.708,-4.7475,-4.7484,-4.7492,0,0,0,0,0,0,-4.7137,-4.7149,-4.7235,-4.7182,-4.719,-4.7128,-4.7165,-4.7151,-4.7166,-4.7115,-4.7102,-4.711,-4.7074,-4.708,-4.7187,-4.7284,-4.7079,-4.7085,-4.7467,-4.7478,-4.7488,-4.7686,0,0,0,0,0,0,-4.7133,-4.7149,-4.7215,-4.7185,-4.7193,-4.7334,-4.7171,-4.7155,-4.7177,-4.7159,-4.7139,-4.7129,-4.7069,-4.7179,-4.7193,-4.7289,-4.7089,-4.7458,-4.7472,-4.7484,-4.767,-4.7702,-4.7729,0,0,0,0,0,-4.7129,-4.7271,-4.7219,-4.7232,-4.7273,-4.734,-4.7344,-4.7272,-4.7186,-4.725,-4.7217,-4.7129,-4.7272,-4.7191,-4.7205,-4.7305,-4.7451,-4.7468,-4.7483,-4.7657,-4.7696,-4.7728,0,0,0,0,0,0,-4.7315,-4.7266,-4.7207,-4.7344,-4.7347,-4.731,-4.7389,-4.7316,-4.7344,-4.7326,-4.7236,-4.7233,-4.7352,-4.7339,-4.725,-4.7469,-4.7346,-4.7366,-4.7473,-4.7509,-4.7538,-4.7538,-4.7094,0,0,0,0,0,-4.7372,-4.743,-4.7384,-4.7509,-4.7514,-4.7452,-4.7478,-4.7422,-4.7422,-4.7422,-4.7397,-4.7401,-4.7445,-4.7477,-4.7516,-4.7668,-4.766,-4.7744,-4.7773,-4.7797,-4.7815,-4.7892,-4.7928,-4.7545,-4.7545,-4.7544,0,0,-4.749,-4.747,-4.7512,-4.7546,-4.7542,-4.7603,-4.7454,-4.7526,-4.757,-4.7433,-4.7531,-4.7513,-4.7511,-4.764,-4.7696,-4.7633,-4.7919,-4.7818,-4.7838,-4.7842,-4.7912,-4.7949,-4.7981,-4.7556,-4.7554,-4.7552,0,0,-4.7735,-4.7728,-4.783,-4.7828,-4.7824,-4.7781,-4.7806,-4.778,-4.7762,-4.7859,-4.7757,-4.7809,-4.7889,-4.7891,-4.7902,-4.8148,-4.8068,-4.8164,-4.8317,-4.8393,-4.8423,-4.8449,-4.8535,-4.8567,-4.8182,-4.8182,-4.8183,0,-4.7883,-4.7971,-4.7892,-4.7969,-4.7986,-4.7865,-4.7967,-4.797,-4.7979,-4.7993,-4.7923,-4.8019,-4.801,-4.8136,-4.8196,-4.8211,-4.8235,-4.8164,-4.8425,-4.8451,-4.8474,-4.8554,-4.8587,-4.8194,-4.8193,-4.8191,-4.819,0,-4.815,-4.8213,-4.8296,-4.8306,-4.8333,-4.8423,-4.8357,-4.8394,-4.8336,-4.8301,-4.84,-4.8384,-4.8417,-4.8443,-4.8388,-4.8562,-4.8523,-4.8441,-4.8315,-4.8523,-4.8597,-4.8627,-4.821,-4.8206,-4.8203,-4.82,0,0,-4.8512,-4.8477,-4.8508,-4.851,-4.8496,-4.8543,-4.8627,-4.8658,-4.869,-4.8701,-4.8767,-4.8838,-4.8761,-4.8774,-4.8719,-4.8786,-4.8979,-4.8695,-4.8693,-4.8746,-4.9167,-4.9227,-4.9264,-4.8927,-4.8932,-4.8937,-4.9166,0,-4.8747,-4.8887,-4.8818,-4.8967,-4.9022,-4.8908,-4.8981,-4.898,-4.8951,-4.8993,-4.896,-4.901,-4.8907,-4.8913,-4.8975,-4.8943,-4.9062,-4.8925,-4.8987,-4.899,-4.8988,-4.9303,-4.9367,-4.9584,-4.9195,-4.92,-4.9203,0,-4.9039,-4.906,-4.9215,-4.9188,-4.9209,-4.9276,-4.9297,-4.934,-4.9337,-4.931,-4.9325,-4.9253,-4.9333,-4.9211,-4.9318,-4.9227,-4.9248,-4.9236,-4.9243,-4.9244,-4.9107,-4.9309,-4.9652,-4.9684,-4.9248,-4.9245,-4.9242,0,-4.9284,-4.9351,-4.9451,-4.9457,-4.943,-4.9479,-4.947,-4.9459,-4.9482,-4.9502,-4.9515,-4.9545,-4.9561,-4.9585,-4.9523,-4.944,-4.9639,-4.9512,-4.9618,-4.9619,-4.9662,-4.966,-5.001,-4.9682,-4.9681,-4.9681,-4.968,0,-4.9551,-4.9649,-4.956,-4.9621,-4.9727,-4.9648,-4.9755,-4.9733,-4.9725,-4.978,-4.9685,-4.9738,-4.9654,-4.97,-4.9652,-4.9747,-4.9756,-4.9736,-4.9721,-4.9743,-4.9745,-4.9753,-4.9735,-4.9689,-4.9687,-4.9686,-4.9684,0,-4.9841,-4.9785,-4.9886,-4.9852,-4.9845,-4.9925,-4.9895,-4.995,-4.9914,-4.9984,-4.9996,-4.994,-4.9988,-4.9929,-4.9973,-4.994,-5.0069,-5.0034,-5.007,-5.0059,-5.0167,-5.0157,-5.0533,-5.0577,-5.0223,-5.0227,-5.023,0,-5.0014,-5.0086,-5.0059,-5.0088,-5.0085,-5.0134,-5.0156,-5.0081,-5.0107,-5.0109,-5.0163,-5.0204,-5.0231,-5.0314,-5.0276,-5.0309,-5.0271,-5.0401,-5.0276,-5.0294,-5.027,-5.0265,-5.0271,-5.0426,-5.043,-5.0434,-5.0436,0,-5.0326,-5.0294,-5.0329,-5.0355,-5.0384,-5.0401,-5.0411,-5.0441,-5.0362,-5.0397,-5.0444,-5.0466,-5.051,-5.055,-5.0572,-5.0562,-5.0487,-5.0477,-5.0502,-5.0523,-5.054,-5.0529,-5.0137,-5.0468,-5.0464,-5.0462,-5.0461,-5.0459,-5.056,-5.0618,-5.0607,-5.0649,-5.0648,-5.0659,-5.0709,-5.0678,-5.0716,-5.0745,-5.0699,-5.0758,-5.0752,-5.0774,-5.0773,-5.0818,-5.0762,-5.08,-5.0809,-5.0819,-5.0834,-5.0536,-5.0822,-5.0821,-5.082,-5.082,-5.0819,0,-5.0864,-5.0851,-5.0891,-5.0906,-5.0939,-5.0865,-5.0872,-5.0904,-5.0957,-5.0958,-5.0987,-5.1041,-5.108,-5.1046,-5.1077,-5.112,-5.1086,-5.1131,-5.1125,-5.1124,-5.0884,-5.0857,-5.1158,-5.1158,-5.1158,-5.1158,-5.1158,-5.1157,-5.1025,-5.1118,-5.1086,-5.1178,-5.1165,-5.1221,-5.1231,-5.124,-5.124,-5.1304,-5.1336,-5.1313,-5.1299,-5.1329,-5.1361,-5.135,-5.1365,-5.1422,-5.1399,-5.1174,-5.1141,-5.1109,-5.1083,-5.1427,-5.1427,-5.1634,-5.1636,-5.1638]},{"header":{"parameterUnit":"m.s-1","parameterCategory":1,"la1":30.2991,"la2":30.254,"lo1":-89.0895,"lo2":-89.0444,"dy":0.0017,"dx":0.0017,"nx":28,"ny":28,"refTime":"2024-10-17T03:00:00:Z","depth":0,"parameterNumber":3,"parameterNumberName":"V-component_of_WINDS"},"data":[0,0,0,0,0,0,0,0,0,0,0,0,0,0,0,0,0,0,0,0,0,0,0,0,0,0,0,0,0,0,0,0,0,0,0,0,0,0,0,0,0,0,0,0,0,0,0,0,0,0,0,0,0,0,0,0,0,0,-2.2436,-2.2436,0,-2.2489,-2.249,-2.249,-2.2501,-2.25,-2.25,-2.25,-2.2551,-2.2553,-2.2554,0,0,0,0,0,0,0,0,0,0,0,0,0,-2.2338,-2.234,-2.2436,-2.2436,-2.2437,-2.2489,-2.249,-2.249,-2.2501,-2.25,-2.25,-2.2499,-2.255,-2.2552,-2.2554,0,0,0,0,0,0,0,0,0,0,0,0,0,-2.2385,-2.2341,-2.2436,-2.2449,-2.245,-2.2489,-2.249,-2.2491,-2.2501,-2.25,-2.25,-2.2499,-2.255,-2.2552,-2.2555,-2.2583,0,0,-2.2563,-2.2564,0,0,0,0,0,0,0,0,-2.2382,-2.2388,-2.2446,-2.2448,-2.245,-2.2488,-2.2474,-2.2521,-2.2501,-2.2482,-2.25,-2.2499,-2.253,-2.2534,-2.2546,-2.2585,-2.2588,-2.2563,-2.2565,-2.2566,-2.2566,0,0,0,0,0,0,0,-2.2379,-2.2386,-2.2457,-2.2447,-2.2449,-2.245,-2.2456,-2.2483,-2.2508,-2.2483,-2.2484,-2.2491,-2.2531,-2.2543,-2.2547,-2.2588,-2.2563,-2.2565,-2.2567,-2.2568,-2.2651,-2.2651,0,0,0,0,0,0,-2.2374,-2.2383,-2.2455,-2.2458,-2.2414,-2.2452,-2.2459,-2.2476,-2.2508,-2.2513,-2.2491,-2.2491,-2.2539,-2.2544,-2.2549,-2.2582,-2.2566,-2.2568,-2.257,-2.265,-2.2651,-2.2651,0,0,0,0,0,0,-2.2372,-2.238,-2.2453,-2.2421,-2.243,-2.2455,-2.2474,-2.2477,-2.249,-2.2514,-2.2518,-2.2499,-2.2539,-2.2545,-2.2574,-2.2584,-2.2569,-2.2572,-2.2649,-2.265,-2.2651,-2.265,0,0,0,0,0,0,-2.2369,-2.238,-2.2392,-2.2421,-2.2432,-2.2479,-2.2474,-2.2479,-2.2494,-2.2495,-2.2523,-2.2527,-2.2539,-2.257,-2.2576,-2.2587,-2.2574,-2.2648,-2.265,-2.2651,-2.2649,-2.2651,-2.2652,0,0,0,0,0,-2.2366,-2.2389,-2.2392,-2.2401,-2.2448,-2.2479,-2.2485,-2.25,-2.2495,-2.2507,-2.2522,-2.2526,-2.2582,-2.2573,-2.258,-2.2592,-2.2648,-2.2649,-2.2651,-2.2649,-2.2651,-2.2652,0,0,0,0,0,0,-2.236,-2.2394,-2.2397,-2.2432,-2.2453,-2.2481,-2.2497,-2.2502,-2.2523,-2.2523,-2.2538,-2.2544,-2.2572,-2.2585,-2.2574,-2.2619,-2.2614,-2.2617,-2.261,-2.2612,-2.2614,-2.261,-2.2576,0,0,0,0,0,-2.2363,-2.2387,-2.2414,-2.2442,-2.2452,-2.2472,-2.2486,-2.2495,-2.2517,-2.2526,-2.2544,-2.2563,-2.2585,-2.26,-2.2621,-2.2651,-2.2656,-2.2663,-2.2664,-2.2665,-2.2667,-2.2682,-2.2684,-2.2656,-2.2656,-2.2656,0,0,-2.2369,-2.239,-2.2404,-2.2441,-2.2458,-2.2481,-2.248,-2.2504,-2.2521,-2.2529,-2.2558,-2.2571,-2.2594,-2.2623,-2.2637,-2.2635,-2.2676,-2.2667,-2.2668,-2.2669,-2.2683,-2.2686,-2.2688,-2.2657,-2.2657,-2.2657,0,0,-2.2391,-2.241,-2.2435,-2.2452,-2.2478,-2.2491,-2.2496,-2.2524,-2.2533,-2.2562,-2.2568,-2.2587,-2.2625,-2.264,-2.2653,-2.2678,-2.2682,-2.2685,-2.2692,-2.2706,-2.2708,-2.271,-2.2718,-2.2721,-2.2687,-2.2687,-2.2687,0,-2.2395,-2.2431,-2.2446,-2.247,-2.2485,-2.2494,-2.2517,-2.2532,-2.2564,-2.2573,-2.2571,-2.2617,-2.2633,-2.2665,-2.2671,-2.2681,-2.2687,-2.2682,-2.2707,-2.2709,-2.2711,-2.2719,-2.2721,-2.2687,-2.2687,-2.2687,-2.2687,0,-2.2433,-2.2458,-2.2473,-2.2504,-2.2521,-2.2544,-2.2561,-2.2575,-2.2582,-2.2595,-2.2622,-2.2642,-2.2667,-2.2675,-2.2682,-2.2707,-2.2704,-2.2704,-2.2699,-2.2714,-2.2721,-2.2724,-2.2687,-2.2687,-2.2687,-2.2687,0,0,-2.2455,-2.2492,-2.2498,-2.251,-2.2539,-2.2557,-2.2579,-2.2604,-2.2616,-2.2636,-2.2654,-2.2685,-2.2684,-2.2699,-2.2707,-2.272,-2.2736,-2.2718,-2.2718,-2.2719,-2.2762,-2.2762,-2.2765,-2.2738,-2.2739,-2.2739,-2.276,0,-2.248,-2.2522,-2.2535,-2.2569,-2.259,-2.2598,-2.2617,-2.2635,-2.2647,-2.2665,-2.2677,-2.2699,-2.2697,-2.2706,-2.2718,-2.2731,-2.2745,-2.273,-2.2753,-2.2754,-2.2747,-2.2769,-2.2769,-2.2788,-2.2763,-2.2763,-2.2764,0,-2.2515,-2.2536,-2.2573,-2.2596,-2.2605,-2.2623,-2.2645,-2.2663,-2.2683,-2.269,-2.2705,-2.2712,-2.2734,-2.2727,-2.2756,-2.2746,-2.2756,-2.2763,-2.2764,-2.2767,-2.276,-2.2771,-2.2794,-2.2796,-2.2768,-2.2768,-2.2768,0,-2.2525,-2.2563,-2.2589,-2.26,-2.2628,-2.264,-2.2652,-2.2671,-2.2685,-2.2704,-2.2712,-2.2733,-2.2744,-2.2759,-2.2771,-2.2766,-2.2798,-2.2793,-2.2803,-2.2803,-2.281,-2.2809,-2.2834,-2.2817,-2.2817,-2.2817,-2.2817,0,-2.2551,-2.2573,-2.2594,-2.261,-2.2633,-2.2647,-2.2669,-2.2681,-2.2698,-2.2715,-2.2723,-2.2738,-2.2753,-2.277,-2.2778,-2.28,-2.2805,-2.281,-2.2812,-2.2809,-2.2808,-2.2816,-2.2815,-2.2818,-2.2818,-2.2817,-2.2817,0,-2.2567,-2.2582,-2.2611,-2.2635,-2.2641,-2.2657,-2.2677,-2.2692,-2.2703,-2.2724,-2.273,-2.2747,-2.2767,-2.278,-2.2806,-2.2811,-2.2834,-2.2836,-2.2828,-2.2829,-2.2838,-2.2836,-2.2868,-2.2872,-2.2853,-2.2853,-2.2853,0,-2.2582,-2.2599,-2.2625,-2.2637,-2.2649,-2.2669,-2.2682,-2.2695,-2.2709,-2.2731,-2.2743,-2.2763,-2.278,-2.2811,-2.2825,-2.2844,-2.2846,-2.2856,-2.2849,-2.2845,-2.2845,-2.2843,-2.2844,-2.2857,-2.2857,-2.2857,-2.2857,0,-2.2607,-2.2613,-2.2633,-2.2655,-2.267,-2.2688,-2.2705,-2.2714,-2.273,-2.2744,-2.2765,-2.2778,-2.2804,-2.2823,-2.2843,-2.2854,-2.2857,-2.2859,-2.2862,-2.2859,-2.2853,-2.2855,-2.283,-2.2858,-2.2858,-2.2858,-2.2858,-2.2858,-2.2623,-2.2637,-2.2657,-2.2678,-2.2692,-2.2707,-2.2722,-2.2734,-2.2752,-2.2775,-2.2781,-2.2802,-2.2819,-2.2846,-2.2857,-2.2872,-2.2871,-2.2876,-2.2877,-2.2878,-2.2877,-2.2851,-2.2876,-2.2876,-2.2876,-2.2876,-2.2876,0,-2.2647,-2.266,-2.2679,-2.2702,-2.2718,-2.2721,-2.2739,-2.2752,-2.2771,-2.2787,-2.2803,-2.2826,-2.2844,-2.2859,-2.2878,-2.2887,-2.2889,-2.2891,-2.289,-2.2892,-2.2878,-2.2873,-2.2889,-2.2889,-2.2889,-2.2889,-2.2889,-2.2889,-2.2662,-2.2685,-2.2693,-2.2723,-2.2736,-2.2757,-2.2767,-2.2781,-2.2793,-2.2818,-2.2834,-2.2844,-2.2858,-2.2878,-2.2894,-2.2898,-2.2904,-2.2906,-2.2909,-2.2895,-2.2894,-2.2892,-2.2888,-2.2907,-2.2907,-2.2923,-2.2923,-2.2923]}]]